Погода в Смагине

Россия / Нижегородская область     55°35′27″N   44°47′19″E
темп.,
°C
ветер,
м/с
пор.,
м/с
влажн.,
%
обл.,
%
осадки,
мм/ч
давл.,
гПа
погр.,
м
12 мая, ср
ср1200:00+12зсз239418 0.1 102754
03:00+11ссз22965 0.2 102735
06:00+14всв4108782 0.0 1026250
09:00+19в46705 0.0 1026537
12:00+23вюв711505 0.0 10252070
15:00+23вюв6125013 0.0 10232666
18:00+19юв61363100 0.0 1022442
21:00+17вюв3116885 0.0 1023301
13 мая, чт
чт1300:00+14вюв398215 0.3 1023171
03:00+13вюв34865 0.3 102362
06:00+15в26830 0.0 1022184
09:00+20вюв6106445 0.0 1021682
12:00+20юв81463100 0.0 10201316
15:00+16вюв61286100 0.8 1020808
18:00+19юв51179100 1.2 1017596
21:00+16ююв31091100 1.4 1018248
14 мая, пт
пт1400:00+14ю22940 0.0 101817
03:00+13ююз229533 0.0 101922
06:00+15ю1292100 0.0 1020102
09:00+19ю237697 0.0 1020514
12:00+22ю3462100 0.0 10201133
15:00+24ю465641 0.0 10191812
18:00+23ююв23695 0.0 101799
21:00+18юв228499 0.2 101726
15 мая, сб
сб1500:00+17ююв3389100 0.0 101753
03:00+16ююв349082 0.0 101663
06:00+17юв3108266 0.0 1016256
09:00+22ю61261100 0.1 1015599
12:00+24ю71357100 0.0 1015871
15:00+24ю81453100 0.0 10151143
18:00+22ю613640 0.0 1014520
21:00+17ю41478100 0.0 1014293
16 мая, вс
вс1600:00+18ю51371100 0.0 1013292
03:00+15ю39825 0.0 1013167
06:00+16ю388395 0.0 1014211
09:00+21ююз457288 0.0 1014616
12:00+24юз5760100 0.0 10141640
15:00+23юз5760100 2.0 10141432
18:00+22з36700 0.8 1014288
21:00+16зюз3381100 0.8 101543